Вернуться в каталог

NOAA 16 DEB

АктивенPO
NORAD 42419·DEBRIS·🇺🇸 United States

Запущен Sep 21, 2000 с Vandenberg Space Force Base

Loading…

Ближайшие Пролёты (ближайшие 24 часа)

TLE

СвежийSource: Space-Track

Эпоха: Sep 13, 2026, 15:27 UTC

1 42419U 00055TP  26256.64378630  .00016028  00000-0  27984-2 0  9997
2 42419  98.8213  35.8939 0011587  51.9874 308.2373 14.67985432545847

Отслеживайте NOAA 16 DEB в реальном времени с AllMySat

Download on the App Store